516  
ASUS44 KMEG 230410  
RWRTN  
TENNESSEE HOURLY STATE WEATHER ROUNDUP  
NATIONAL WEATHER SERVICE MEMPHIS TN  
1000 PM CST THU FEB 22 2024  
 
TNZ002-004-019-021-049-052-054-088>092-230500-  
WEST TENNESSEE  
 
CITY SKY/WX TMP DP RH WIND PRES REMARKS
 
MEMPHIS INTL CLOUDY 57 51 80 N8G20 29.72R  
NWS MEMPHIS N/A 57 N/A N/A MISG N/A  
JACKSON LGT RAIN 56 53 90 E5 29.71F  
DYERSBURG LGT RAIN 53 32 44 VRB7 29.72S  
COVINGTON CLOUDY 54 54 100 NE5 29.68F  
UNION CITY CLOUDY 54 54 100 N6G14 29.68F  
PARIS CLOUDY 54 54 100 NW5 29.68R  
HUNTINGDON CLOUDY 54 54 100 W5 29.69R  
LEXINGTON N/A 54 54 100 CALM 29.72F  
SELMER CLOUDY 57 52 82 N16G31 29.72R HAZE  
SAVANNAH CLOUDY 61 59 94 CALM 29.65S  

 
 
TNZ008-025-027-028-033-062-065-066-230500-  
NORTH MIDDLE TENNESSEE  
 
CITY SKY/WX TMP DP RH WIND PRES REMARKS
 
NASHVILLE RAIN 57 54 89 SW6 29.67F FOG  
DICKSON CLOUDY 54 54 100 W5 29.69R FOG  
PORTLAND CLOUDY 55 55 100 VRB3 29.64S  
CLARKSVILLE CLOUDY 56 53 90 W7 29.67R  
LEBANON CLOUDY 55 55 100 SW5 29.64F FOG  
SMYRNA RAIN 56 55 97 NW7 29.68  
MURFREESBORO CLOUDY 57 55 94 NW9G16 29.65R FOG  
COOKEVILLE LGT RAIN 54 52 94 N8 29.67R  
LIVINGSTON MOCLDY 52 50 93 W6 29.65F FOG  
CROSSVILLE CLOUDY 54 52 93 SW8 29.66F  

 
 
TNZ061-075-076-078-094-096-097-230500-  
SOUTH MIDDLE TENNESSEE  
 
CITY SKY/WX TMP DP RH WIND PRES REMARKS
 
LAWRENCEBURG CLOUDY 57 54 88 CALM 29.65F  
LEWISBURG CLOUDY 59 55 88 SW9 29.65F  
FAYETTEVILLE CLOUDY 57 54 88 SW5 29.68F  
TULLAHOMA MOCLDY 55 52 88 SW5 29.64F  
WINCHESTER CLOUDY 55 55 100 VRB5 29.65F  
MCMINNVILLE CLOUDY 55 54 94 SW5 29.65F  
COLUMBIA MOCLDY 55 55 100 N10G30 29.67R FOG  
SHELBYVILLE CLOUDY 57 54 88 SW8 29.64F  

 
 
TNZ017-018-042-046-047-230500-  
NORTHEAST TENNESSEE  
 
CITY SKY/WX TMP DP RH WIND PRES REMARKS
 
TRI CITIES HVY RAIN 51 50 96 CALM 29.68F FOG  
ELIZABETHTON CLOUDY 50 50 100 MISG 29.67F FOG  
GREENEVILLE CLOUDY 52 48 87 CALM 29.66F  

 
 
TNZ012-013-036-069-073-074-230500-  
CENTRAL EAST TENNESSEE  
 
CITY SKY/WX TMP DP RH WIND PRES REMARKS
 
KNOXVILLE CLOUDY 56 51 84 SW10 29.65F  
OAK RIDGE CLOUDY 56 53 90 SW3 29.66F  
DOWNTOWN KNOXV CLOUDY 57 54 88 W7 29.65F  
GATLINBURG CLOUDY 55 54 94 CALM 29.65F  
MORRISTOWN CLOUDY 54 54 100 N5 29.65S FOG  
JACKSBORO MOCLDY 54 54 100 S5 29.69F FOG  
ONEIDA MOCLDY 52 52 100 SW7 29.66S  

 
 
TNZ083-085-099-230500-  
SOUTHEAST TENNESSEE  
 
CITY SKY/WX TMP DP RH WIND PRES REMARKS
 
CHATTANOOGA MOCLDY 59 52 77 S5 29.68F  
DAYTON CLOUDY 55 55 100 CALM 29.65F  

 
 
SKY/WX REPORTED AS FAIR MEANS FEW OR NO CLOUDS BELOW  
12 THOUSAND FEET.  
 
 
 
CLICK HERE TO GO TO PREVIOUS BULLETINS.

The Nexlab TN Page Main Text Page